When you browse on this site, cookies collect data to enhance your experience and personalize the content and advertising you see.
Visit our Privacy Policy to learn more. By continuing to use the site, you agree to this use of cookies and data.
  • In Romania
  • List of Countries
  • For 7 days
  • Water Temperature
  • Satellite Maps
  • Weather Map
  • Weather Widgets
  • user-avatar
    Login

    Hourly Weather Acerno

    Today, 22 April, Monday

    Time Temperature Precipitation Wind Pressure Humidity
    00:00 +7°C° 0 mm 2 mps 673 mmHg 78%
    01:00 +7°C° 0 mm 2 mps 673 mmHg 77%
    02:00 +7°C° 0 mm 2 mps 672 mmHg 78%
    03:00 +7°C° 0 mm 3 mps 672 mmHg 80%
    04:00 +7°C° 0 mm 3 mps 671 mmHg 82%
    05:00 +7°C° 0 mm 3 mps 671 mmHg 81%
    06:00 +8°C° 0 mm 3 mps 671 mmHg 80%
    07:00 +9°C° 0 mm 2 mps 671 mmHg 74%
    08:00 +12°C° 0 mm 2 mps 671 mmHg 65%
    09:00 +15°C° 0 mm 2 mps 672 mmHg 57%
    10:00 +17°C° 0 mm 2 mps 672 mmHg 48%
    11:00 +17°C° 0 mm 2 mps 672 mmHg 49%
    12:00 +17°C° 0 mm 3 mps 671 mmHg 49%
    13:00 +18°C° 0 mm 1 mps 671 mmHg 55%
    14:00 +16°C° 0.4 mm 1 mps 671 mmHg 61%
    15:00 +16°C° 0.4 mm 1 mps 670 mmHg 68%
    16:00 +15°C° 0.4 mm 1 mps 669 mmHg 74%
    17:00 +14°C° 0.1 mm 1 mps 669 mmHg 78%
    18:00 +13°C° 0.1 mm 1 mps 669 mmHg 81%
    19:00 +12°C° 0.1 mm 1 mps 668 mmHg 85%
    20:00 +10°C° 0.1 mm 2 mps 668 mmHg 87%
    21:00 +10°C° 0.1 mm 2 mps 668 mmHg 88%
    22:00 +9°C° 0.1 mm 2 mps 668 mmHg 90%
    23:00 +8°C° 0 mm 2 mps 667 mmHg 89%

    Tomorrow, 23 April, Tuesday

    Time Temperature Precipitation Wind Pressure Humidity
    00:00 +9°C° 0 mm 1 mps 667 mmHg 88%
    01:00 +8°C° 0 mm 1 mps 667 mmHg 86%
    02:00 +8°C° 0 mm 1 mps 666 mmHg 84%
    03:00 +8°C° 0 mm 1 mps 666 mmHg 83%
    04:00 +6°C° 0 mm 2 mps 666 mmHg 81%
    05:00 +7°C° 0 mm 2 mps 666 mmHg 79%
    06:00 +8°C° 0 mm 2 mps 667 mmHg 78%
    07:00 +9°C° 0 mm 2 mps 667 mmHg 76%
    08:00 +11°C° 0 mm 3 mps 668 mmHg 73%
    09:00 +12°C° 0 mm 3 mps 668 mmHg 69%
    10:00 +13°C° 0 mm 4 mps 669 mmHg 66%
    11:00 +14°C° 0 mm 4 mps 669 mmHg 64%
    12:00 +14°C° 0 mm 4 mps 670 mmHg 63%
    13:00 +15°C° 0 mm 4 mps 670 mmHg 61%
    14:00 +15°C° 0.1 mm 4 mps 670 mmHg 62%
    15:00 +14°C° 0.1 mm 4 mps 670 mmHg 63%
    16:00 +14°C° 0.1 mm 4 mps 670 mmHg 64%
    17:00 +13°C° 0.1 mm 3 mps 670 mmHg 70%
    18:00 +12°C° 0.1 mm 2 mps 670 mmHg 76%
    19:00 +11°C° 0.1 mm 1 mps 670 mmHg 82%
    20:00 +10°C° 0 mm 1 mps 671 mmHg 82%
    21:00 +10°C° 0 mm 1 mps 671 mmHg 83%
    22:00 +9°C° 0 mm 1 mps 672 mmHg 84%
    23:00 +9°C° 0 mm 1 mps 672 mmHg 83%

    Day after tomorrow, 24 April, Wednesday

    Time Temperature Precipitation Wind Pressure Humidity
    00:00 +9°C° 0 mm 1 mps 672 mmHg 82%
    01:00 +8°C° 0 mm 1 mps 672 mmHg 81%
    02:00 +8°C° 0 mm 1 mps 672 mmHg 80%
    03:00 +8°C° 0 mm 1 mps 672 mmHg 79%
    04:00 +8°C° 0 mm 1 mps 672 mmHg 78%
    05:00 +9°C° 0 mm 1 mps 673 mmHg 76%
    06:00 +11°C° 0 mm 1 mps 674 mmHg 74%
    07:00 +12°C° 0 mm 1 mps 674 mmHg 72%
    08:00 +14°C° 0 mm 1 mps 675 mmHg 64%
    09:00 +16°C° 0 mm 2 mps 676 mmHg 56%
    10:00 +18°C° 0 mm 2 mps 677 mmHg 48%
    11:00 +19°C° 0 mm 2 mps 677 mmHg 46%
    12:00 +19°C° 0 mm 3 mps 677 mmHg 43%
    13:00 +20°C° 0 mm 3 mps 677 mmHg 41%
    14:00 +20°C° 0 mm 2 mps 677 mmHg 41%
    15:00 +20°C° 0 mm 2 mps 677 mmHg 42%
    16:00 +19°C° 0 mm 2 mps 677 mmHg 42%
    17:00 +18°C° 0 mm 1 mps 677 mmHg 46%
    18:00 +15°C° 0 mm 1 mps 676 mmHg 51%
    19:00 +12°C° 0 mm 0 mps 676 mmHg 55%
    20:00 +12°C° 0 mm 0 mps 676 mmHg 55%
    21:00 +12°C° 0 mm 1 mps 676 mmHg 56%
    22:00 +12°C° 0 mm 1 mps 676 mmHg 57%
    23:00 +12°C° 0 mm 1 mps 676 mmHg 57%

    25 April, Thursday

    Time Temperature Precipitation Wind Pressure Humidity
    00:00 +11°C° 0 mm 1 mps 676 mmHg 57%
    01:00 +11°C° 0 mm 1 mps 676 mmHg 56%
    02:00 +11°C° 0 mm 1 mps 676 mmHg 54%
    03:00 +11°C° 0 mm 1 mps 676 mmHg 52%
    04:00 +11°C° 0 mm 1 mps 676 mmHg 50%
    05:00 +12°C° 0 mm 1 mps 676 mmHg 51%
    06:00 +13°C° 0 mm 1 mps 676 mmHg 52%
    07:00 +14°C° 0 mm 2 mps 677 mmHg 52%
    08:00 +17°C° 0 mm 2 mps 677 mmHg 47%
    09:00 +20°C° 0 mm 1 mps 678 mmHg 42%
    10:00 +22°C° 0 mm 1 mps 679 mmHg 37%
    11:00 +23°C° 0 mm 1 mps 679 mmHg 36%
    12:00 +24°C° 0 mm 1 mps 679 mmHg 36%
    13:00 +25°C° 0 mm 1 mps 679 mmHg 36%
    14:00 +24°C° 0 mm 1 mps 679 mmHg 37%
    15:00 +24°C° 0 mm 1 mps 678 mmHg 39%
    16:00 +23°C° 0 mm 1 mps 678 mmHg 41%
    17:00 +21°C° 0 mm 1 mps 678 mmHg 49%
    18:00 +19°C° 0 mm 1 mps 677 mmHg 56%
    19:00 +15°C° 0 mm 1 mps 677 mmHg 64%
    20:00 +15°C° 0 mm 1 mps 677 mmHg 67%
    21:00 +14°C° 0 mm 1 mps 677 mmHg 71%
    22:00 +13°C° 0 mm 1 mps 677 mmHg 75%
    23:00 +13°C° 0 mm 1 mps 677 mmHg 76%

    26 April, Friday

    Time Temperature Precipitation Wind Pressure Humidity
    00:00 +13°C° 0 mm 1 mps 677 mmHg 77%
    01:00 +13°C° 0 mm 1 mps 676 mmHg 78%
    02:00 +12°C° 0 mm 1 mps 676 mmHg 77%
    03:00 +12°C° 0 mm 1 mps 676 mmHg 76%
    04:00 +12°C° 0 mm 1 mps 676 mmHg 76%
    05:00 +13°C° 0 mm 1 mps 676 mmHg 72%
    06:00 +14°C° 0 mm 1 mps 677 mmHg 67%
    07:00 +15°C° 0 mm 1 mps 677 mmHg 63%
    08:00 +18°C° 0 mm 1 mps 677 mmHg 56%
    09:00 +18°C° 0 mm 2 mps 678 mmHg 49%
    10:00 +20°C° 0 mm 2 mps 678 mmHg 42%
    11:00 +21°C° 0 mm 2 mps 678 mmHg 42%
    12:00 +21°C° 0 mm 3 mps 678 mmHg 42%
    13:00 +22°C° 0 mm 3 mps 678 mmHg 42%
    14:00 +21°C° 0 mm 3 mps 678 mmHg 45%
    15:00 +20°C° 0 mm 3 mps 678 mmHg 49%
    16:00 +20°C° 0 mm 3 mps 677 mmHg 53%
    17:00 +18°C° 0 mm 2 mps 677 mmHg 59%
    18:00 +16°C° 0 mm 2 mps 676 mmHg 65%
    19:00 +14°C° 0 mm 1 mps 676 mmHg 71%
    20:00 +13°C° 0 mm 1 mps 676 mmHg 73%
    21:00 +12°C° 0 mm 1 mps 676 mmHg 74%
    22:00 +11°C° 0 mm 1 mps 676 mmHg 76%
    23:00 +11°C° 0 mm 1 mps 676 mmHg 76%

    27 April, Saturday

    Time Temperature Precipitation Wind Pressure Humidity
    00:00 +11°C° 0 mm 1 mps 676 mmHg 76%
    01:00 +10°C° 0 mm 1 mps 676 mmHg 76%
    02:00 +10°C° 0 mm 1 mps 676 mmHg 78%
    03:00 +10°C° 0 mm 1 mps 676 mmHg 79%
    04:00 +9°C° 0 mm 1 mps 676 mmHg 81%
    05:00 +10°C° 0 mm 1 mps 676 mmHg 76%
    06:00 +11°C° 0 mm 1 mps 677 mmHg 72%
    07:00 +13°C° 0 mm 1 mps 677 mmHg 68%
    08:00 +14°C° 0 mm 1 mps 678 mmHg 61%
    09:00 +15°C° 0 mm 2 mps 678 mmHg 54%
    10:00 +17°C° 0 mm 3 mps 679 mmHg 47%
    11:00 +17°C° 0 mm 3 mps 678 mmHg 46%
    12:00 +17°C° 0 mm 4 mps 678 mmHg 44%
    13:00 +17°C° 0 mm 4 mps 678 mmHg 43%
    14:00 +15°C° 0 mm 4 mps 678 mmHg 45%
    15:00 +14°C° 0 mm 3 mps 678 mmHg 46%
    16:00 +13°C° 0 mm 3 mps 677 mmHg 48%
    17:00 +11°C° 0 mm 3 mps 677 mmHg 56%
    18:00 +10°C° 0 mm 2 mps 677 mmHg 64%
    19:00 +8°C° 0 mm 2 mps 676 mmHg 72%
    20:00 +8°C° 0 mm 1 mps 676 mmHg 76%
    21:00 +7°C° 0 mm 1 mps 676 mmHg 80%
    22:00 +7°C° 0 mm 1 mps 677 mmHg 84%
    23:00 +6°C° 0 mm 1 mps 676 mmHg 85%
    Show more